EHI
3 2 1 0 0 0 0 0 0 0 0 0 0 0 0 0 0 0 0 0 0 0 0 0 0 0 0 0 0 0 0 0 0 0 0 0 0 0 0 0 0 0 0
3 3 1 0 0 0 0 0 0 0 0 0 0 0 0 0 0 0 0 0 0 0 0 0 0 0 0 0 0 0 0 0 0 0 0 0 0 0 0 0 0 0 0
3 3 2 1 0 0 0 0 0 0 0 0 0 0 0 0 0 0 0 0 0 0 0 0 0 0 0 0 0 0 0 0 0 0 0 0 0 0 0 0 0 0 0
3 3 3 1 0 0 0 0 0 0 0 0 0 0 0 0 0 0 0 0 0 0 0 0 0 0 0 0 0 0 0 0 0 0 0 0 0 0 0 0 0 0 0
3 3 3 2 0 0 0 0 0 0 0 0 0 0 0 0 0 0 0 0 0 0 0 0 0 0 0 0 0 0 0 0 0 0 0 0 0 0 0 0 0 0 0
3 3 3 1 0 0 0 0 0 0 0 0 0 0 0 0 0 0 0 0 0 0 0 0 0 0 0 0 0 0 0 0 0 0 0 0 0 0 0 0 0 0 0
3 3 2 1 0 0 0 0 0 0 0 0 0 0 0 0 0 0 0 0 0 0 0 0 0 0 0 0 0 0 0 0 0 0 0 0 0 1 1 0 0 0 0
3 3 1 0 0 0 0 0 0 0 0 0 0 0 0 0 0 0 0 0 0 0 0 0 0 0 0 0 0 0 0 0 0 0 0 0 0 1 1 1 0 0 0
3 2 1 0 0 0 0 0 0 0 0 0 0 0 0 0 0 0 0 0 0 0 0 0 0 0 0 0 0 0 0 0 0 0 0 0 0 1 1 1 0 0 0
2 1 0 0 0 0 0 0 0 0 0 0 0 0 0 0 0 0 0 0 0 0 0 0 0 0 0 0 0 0 0 0 0 0 0 0 0 0 1 1 1 0 0
1 0 0 0 0 0 0 0 0 0 0 0 0 0 0 0 0 0 0 0 0 0 0 0 0 0 0 0 0 0 0 0 0 0 0 0 0 0 0 1 1 1 0
0 0 0 0 0 0 0 0 0 0 0 0 0 0 0 0 0 0 0 0 0 0 0 0 0 0 0 0 0 0 0 0 0 0 0 0 0 0 0 1 1 1 0
0 0 0 0 0 0 0 0 0 0 0 0 0 0 0 0 0 0 0 0 0 0 0 0 0 0 0 0 0 0 0 0 0 0 0 0 0 0 0 0 0 0 0
0 0 0 0 0 0 0 0 0 0 0 0 0 0 0 0 0 0 0 0 0 0 0 0 0 0 0 0 0 0 0 0 0 0 0 0 0 0 0 0 0 0 0
0 0 0 0 0 0 0 0 0 0 0 0 0 0 0 0 0 0 0 0 0 0 0 0 0 0 0 0 0 0 0 0 0 0 0 0 0 0 0 0 0 0 0
0 0 0 0 0 0 0 0 0 0 0 0 0 0 0 0 0 0 0 0 0 0 0 0 0 0 0 0 0 0 0 0 0 0 0 0 0 0 0 0 0 0 0
0 0 0 0 0 0 0 0 0 0 0 0 0 0 0 0 0 0 0 0 0 0 0 0 0 0 0 0 0 0 0 0 0 0 0 0 0 0 0 0 0 0 0
0 0 0 0 0 0 0 0 0 0 0 0 0 0 0 0 0 0 0 0 0 0 0 0 0 0 0 0 0 0 0 0 0 0 0 0 0 0 0 0 0 0 0
0 0 0 0 0 0 0 0 0 0 0 0 0 0 0 0 0 0 0 0 0 0 0 0 0 0 0 0 0 0 0 0 0 0 0 0 0 0 0 0 0 0 0
0 0 0 0 0 0 0 0 0 0 0 0 0 0 0 0 0 0 0 0 0 0 0 0 0 0 0 0 0 0 0 0 0 0 0 0 0 0 0 0 0 0 0
0 0 0 0 0 0 0 0 0 0 0 0 0 0 0 0 0 0 0 0 0 0 0 0 0 0 0 0 0 0 0 0 0 0 0 0 0 0 0 0 0 0 0
0 0 0 0 0 0 0 0 0 0 0 0 0 0 0 0 0 0 0 0 0 0 0 0 0 0 0 0 0 0 0 0 0 0 0 0 0 0 0 0 0 0 0
0 0 0 0 0 0 0 0 0 0 0 0 0 0 0 0 0 0 0 0 0 0 0 0 0 0 0 0 0 0 0 0 0 0 0 0 0 0 0 0 0 0 0
0 0 0 0 0 0 0 0 0 0 0 0 0 0 0 0 0 0 0 0 0 0 0 0 0 0 0 0 0 0 0 0 0 0 0 0 0 0 0 0 0 0 0
0 0 0 0 0 0 0 0 0 0 0 0 0 0 0 0 0 0 0 0 0 0 0 0 0 0 0 0 0 0 0 0 0 0 0 0 0 0 0 0 0 0 0
0 0 0 0 0 0 0 0 0 0 0 0 0 0 0 0 0 0 0 0 0 0 0 0 0 0 0 0 0 0 0 0 0 0 0 0 0 0 0 0 0 0 0
Wind_Speed
2 2 2 2 2 2 2 2 2 2 1 1 1 1 1 1 1 1 1 2 1 1 3 3 4 4 4 5 5 5 5 5 5 6 6 7 8 8 8 9 9 10 10
2 2 2 2 1 1 1 2 2 2 1 1 1 1 1 1 1 1 2 1 1 1 3 4 4 5 5 5 5 6 6 5 6 6 7 7 8 9 9 9 10 10 11
3 2 2 1 1 1 1 1 1 1 1 1 1 1 1 1 1 1 1 1 1 1 2 4 4 5 6 6 6 7 7 6 7 7 7 8 9 9 10 10 10 11 11
2 2 2 2 1 1 1 1 1 1 1 1 1 1 1 1 1 1 1 1 1 1 1 3 4 5 6 6 7 7 8 7 7 8 8 8 9 10 10 10 10 11 12
2 2 2 2 1 1 1 1 1 1 1 0 1 1 1 1 2 2 2 2 2 2 1 2 3 4 5 6 7 8 8 8 8 9 9 9 9 10 10 11 11 11 12
2 2 2 2 2 1 1 1 2 1 1 1 1 1 1 2 2 2 2 2 2 2 2 2 2 3 5 6 7 8 9 9 9 10 10 10 10 10 10 11 11 12 12
2 2 2 2 1 1 2 2 2 2 1 1 1 1 2 2 2 2 2 2 2 2 2 2 2 2 2 5 7 8 9 9 10 10 10 11 11 11 11 11 12 12 12
1 1 2 2 2 1 1 2 2 2 1 1 1 0 1 2 2 2 2 2 2 2 2 3 2 2 2 2 4 7 8 9 10 11 11 11 11 11 11 11 11 12 12
2 1 2 2 2 2 2 2 2 3 3 2 1 2 2 2 2 2 3 2 2 2 2 2 3 2 2 2 2 4 7 9 10 11 11 11 11 11 11 11 12 12 13
1 2 2 2 2 2 2 2 2 1 3 2 1 1 1 1 1 2 2 2 2 3 3 2 2 3 3 2 3 4 7 8 10 11 11 11 11 12 11 12 12 12 13
2 2 2 2 2 2 2 2 1 1 1 2 2 1 1 1 1 2 3 3 2 3 2 3 2 2 2 2 2 4 7 8 10 11 11 11 11 12 11 11 12 12 13
2 2 2 2 2 2 2 2 2 2 2 2 1 1 1 2 1 1 3 3 3 3 3 2 2 2 2 2 3 6 7 8 9 10 10 11 11 11 12 11 12 12 13
2 3 2 2 2 2 2 2 2 2 3 2 2 1 1 2 1 1 2 3 3 3 2 2 2 2 2 2 3 6 7 9 9 9 10 10 10 10 11 11 12 12 13
3 3 3 3 3 3 2 2 2 2 2 3 2 2 1 1 1 1 2 2 3 3 3 4 2 2 2 2 4 6 6 9 9 9 9 9 9 9 10 11 11 12 13
2 3 2 2 2 3 3 3 2 2 2 2 2 2 1 1 1 1 1 2 2 3 4 4 2 2 2 2 5 4 5 7 8 8 8 8 8 9 9 10 10 11 12
2 3 2 2 2 2 3 3 3 3 3 2 2 2 2 1 1 1 1 1 2 3 4 3 3 3 3 4 6 4 5 8 8 8 8 8 8 8 8 9 10 10 11
3 3 3 2 2 2 2 2 3 3 3 3 2 2 2 1 1 1 1 2 2 3 5 4 3 3 3 4 4 4 4 4 4 7 8 8 8 8 7 8 9 10 11
2 2 2 2 2 2 2 3 3 3 3 3 2 2 2 1 1 1 1 3 3 3 3 5 4 3 4 4 4 4 4 4 4 6 8 7 7 7 7 8 8 9 10
2 1 2 1 2 2 2 2 3 3 3 2 2 2 2 1 2 2 2 3 3 3 2 3 4 3 3 3 4 4 4 4 4 5 6 6 6 7 7 8 9 9 9
2 1 1 1 1 2 2 2 2 2 2 1 1 2 2 2 2 2 2 3 3 3 2 2 3 3 3 3 3 3 4 4 4 5 5 5 6 7 7 8 8 9 9
1 1 1 0 1 1 1 1 1 2 1 1 1 1 2 2 3 2 2 2 2 2 2 2 2 3 3 3 3 3 4 4 4 3 4 4 4 3 4 6 7 8 9
1 1 1 0 0 1 1 2 2 2 2 2 2 1 1 2 2 3 4 4 3 3 3 3 2 3 4 3 3 3 3 3 4 3 3 5 3 3 3 2 6 8 9
1 1 1 0 0 0 1 2 2 1 2 2 2 1 1 1 2 2 3 4 3 4 3 3 4 4 3 3 3 3 3 3 3 3 3 4 3 3 4 4 8 8 9
0 0 0 0 0 1 2 1 1 1 1 1 1 2 2 2 2 2 1 1 2 2 3 2 2 3 2 2 2 3 3 3 3 3 2 2 3 3 4 4 7 8 9
0 0 0 0 0 1 2 1 0 1 1 1 1 1 1 1 3 2 1 1 2 2 3 4 4 4 4 4 3 1 2 2 3 3 2 1 2 4 3 2 4 8 9
1 1 1 0 0 0 1 2 0 1 1 1 1 1 2 2 3 3 1 2 2 3 2 3 3 4 3 2 4 1 1 1 2 2 1 2 2 3 3 2 3 4 5
Wind_Direction
143 142 147 154 158 161 181 189 170 171 166 174 171 177 165 131 133 132 130 121 81 333 318 320 320 317 318 326 329 327 328 326 327 331 335 333 333 333 332 331 329 329 329
142 144 147 156 174 182 196 187 171 164 167 172 188 189 184 172 166 152 153 162 193 289 302 305 308 312 309 312 315 320 319 321 322 324 325 326 326 327 327 325 325 326 326
146 149 151 157 178 180 200 177 146 137 167 192 205 220 208 205 190 175 180 169 181 264 297 300 304 305 305 304 310 313 317 312 316 317 318 321 322 322 322 321 322 323 322
140 143 154 163 180 154 141 165 144 137 174 198 219 242 225 210 212 198 203 191 186 193 257 291 305 306 302 299 303 308 309 309 310 314 314 314 316 316 317 318 319 319 319
142 144 160 164 150 134 130 175 140 144 161 236 242 244 236 223 224 219 215 218 204 185 198 256 288 305 311 304 305 310 307 310 309 311 312 310 310 312 314 314 316 317 318
155 144 150 151 140 140 164 168 154 143 152 196 266 279 257 242 232 220 218 216 209 206 212 223 240 279 289 296 301 304 306 309 311 312 316 315 309 310 311 313 315 316 317
149 154 149 150 150 174 193 182 156 145 148 116 84 315 283 250 226 218 218 215 219 223 223 232 233 238 263 279 292 299 303 304 308 308 312 315 315 312 310 313 313 314 316
139 154 161 171 172 185 187 184 159 150 166 150 143 168 297 301 265 242 234 226 231 227 237 241 238 241 245 247 277 292 298 301 305 307 308 311 311 315 313 311 312 314 316
176 174 186 178 171 171 188 195 179 166 182 201 172 159 179 238 292 256 233 228 233 245 251 253 250 252 250 245 258 284 294 299 303 307 307 309 311 311 315 315 313 314 315
188 191 194 187 177 177 182 203 212 189 169 187 212 225 216 195 213 292 286 253 256 259 254 262 261 256 253 245 257 280 291 299 298 303 304 305 309 311 315 317 315 314 314
187 194 183 183 182 180 188 191 191 190 186 186 186 202 240 258 244 237 273 286 286 262 256 258 249 254 257 252 250 279 290 293 294 298 300 304 308 312 311 318 318 315 315
184 191 189 180 184 186 192 195 188 184 187 189 196 195 189 200 228 235 255 268 275 274 270 264 248 252 260 261 274 287 289 291 294 297 302 303 306 312 311 314 318 317 316
196 200 199 188 185 200 196 190 187 192 188 188 203 219 223 223 221 240 259 276 281 283 276 266 250 250 275 272 274 287 288 290 291 295 299 302 305 309 314 314 317 317 318
197 194 192 188 192 196 203 189 187 199 191 191 203 211 223 255 236 222 230 260 288 285 273 270 268 248 279 279 289 290 284 289 289 292 297 300 307 310 313 318 319 322 321
186 182 185 187 194 196 197 191 189 203 193 196 195 197 211 239 249 239 227 218 238 276 277 272 286 292 296 291 297 294 289 288 290 292 296 299 306 310 315 320 321 324 325
172 174 179 185 195 199 199 195 184 192 192 197 196 200 213 221 224 235 225 242 238 246 268 277 278 301 303 305 304 302 294 300 291 292 296 299 305 308 315 321 322 325 328
169 172 179 187 190 192 197 193 195 188 196 202 205 207 217 226 239 248 253 251 251 246 263 284 294 306 304 302 308 301 297 288 288 295 296 300 306 310 319 322 324 325 327
169 176 176 178 195 198 192 199 207 203 198 201 208 214 222 221 251 248 258 263 257 250 256 284 300 306 299 299 310 310 312 310 303 309 306 302 308 317 325 327 328 328 330
149 154 153 172 202 202 195 204 207 212 203 200 201 212 221 217 247 260 265 271 273 272 264 275 291 302 304 314 320 315 311 313 317 316 312 318 321 324 329 328 333 334 332
146 149 165 194 213 207 195 208 215 209 192 188 193 202 216 230 241 256 272 269 281 281 275 277 290 306 309 313 315 318 321 328 323 328 328 326 318 320 322 327 333 336 336
105 137 146 165 195 195 204 207 217 222 185 164 179 206 212 229 246 263 277 285 288 287 285 278 289 305 308 321 319 314 315 320 319 334 330 318 313 304 309 325 335 337 339
71 71 81 100 250 253 231 232 232 219 190 175 195 219 228 229 259 290 295 298 297 278 275 275 278 285 294 302 311 314 317 327 318 326 328 316 321 313 313 311 333 339 343
66 46 37 21 305 267 256 236 239 228 196 194 190 212 262 259 272 256 292 309 314 318 293 269 269 274 282 291 298 306 307 306 295 300 319 311 323 322 321 329 339 341 347
82 64 285 267 297 309 315 280 221 198 173 180 193 215 237 253 253 262 275 297 302 305 303 305 277 274 283 285 273 275 285 304 304 314 329 310 319 320 324 323 335 348 353
329 331 273 150 21 319 325 318 122 173 174 195 213 221 230 254 268 285 266 270 293 308 335 333 327 316 321 331 336 336 337 331 321 320 342 343 323 324 320 320 342 355 352
318 337 354 350 272 265 323 330 311 179 173 199 223 225 235 253 280 293 251 244 271 294 313 325 331 332 326 331 350 336 283 300 316 313 335 351 323 338 332 322 335 340 343